Weather History for Aitkin, MN

Change the Weather History Date:

Thursday, November 1, 2012

  Actual Average Record
Temperature  
Mean Temperature 34 °F -  
Max Temperature 41 °F 46 °F 64 °F (1990)
Min Temperature 28 °F 29 °F 12 °F (1984)
Degree Days  
Heating Degree Days 30    
Moisture  
Dew Point 24 °F    
Average Humidity 64    
Maximum Humidity 80    
Minimum Humidity 48    
Precipitation  
Precipitation 0.00 in - - ()
Sea Level Pressure  
Sea Level Pressure 29.99 in    
Wind  
Wind Speed 6 mph (NNW)    
Max Wind Speed 14 mph    
Max Gust Speed 20 mph    
Visibility 10 miles    
Events      
Averages and records for this station are not official NWS values.
T = Trace of Precipitation, MM = Missing Value Source: NWS Daily Summary

Daily Weather History Graph

Daily Weather History Graph

Search for Another Location

Airport:

Trip Planner

Search our weather history database for the weather conditions in past years. The results will help you decide how hot, cold, wet, or windy it might be!

Date:

Astronomy

Nov. 01, 2012 Rise Set
Actual Time 7:57 AM CDT 5:58 PM CDT
Civil Twilight 7:25 AM CDT 6:30 PM CDT
Nautical Twilight 6:49 AM CDT 7:05 PM CDT
Astronomical Twilight 6:14 AM CDT 7:41 PM CDT
Moon 7:48 PM CDT (11/1) 10:38 AM CDT (11/1)
Length of Visible Light 11h 04m
Length of Day
10h 01m
Waning Gibbous, 93% of the Moon is Illuminated
Nov 1
Waning Gibbous
Nov 6
Last Quarter
Nov 13
New
Nov 20
First Quarter
Nov 28
Full

Hourly Weather History & Observations

Time (CDT) Temp. Windchill Dew Point Humidity Pressure Visibility Wind Dir Wind Speed Gust Speed Precip Events Conditions
12:13 AM 30.2 °F - 23.0 °F 75% 29.91 in 10.0 mi Calm Calm - N/A   Clear
12:32 AM 28.4 °F - 23.0 °F 80% 29.91 in 10.0 mi Calm Calm - N/A   Scattered Clouds
12:53 AM 30.2 °F - 24.8 °F 80% 29.91 in 10.0 mi Calm Calm - N/A   Mostly Cloudy
1:13 AM 33.8 °F - 26.6 °F 75% 29.91 in 10.0 mi Calm Calm - N/A   Overcast
1:32 AM 33.8 °F - 26.6 °F 75% 29.92 in 10.0 mi Calm Calm - N/A   Overcast
1:53 AM 37.4 °F - 26.6 °F 65% 29.92 in 10.0 mi Calm Calm - N/A   Overcast
2:13 AM 39.2 °F 35.9 °F 26.6 °F 61% 29.92 in 10.0 mi NNW 4.6 mph - N/A   Overcast
2:32 AM 39.2 °F 35.0 °F 28.4 °F 65% 29.93 in 10.0 mi NW 5.8 mph - N/A   Overcast
2:53 AM 41.0 °F 35.8 °F 30.2 °F 65% 29.93 in 10.0 mi NNW 8.1 mph 16.1 mph N/A   Overcast
3:13 AM 39.2 °F 33.6 °F 30.2 °F 70% 29.93 in 10.0 mi NNW 8.1 mph - N/A   Overcast
3:32 AM 39.2 °F 33.0 °F 30.2 °F 70% 29.93 in 10.0 mi NNW 9.2 mph - N/A   Overcast
3:53 AM 39.2 °F 33.0 °F 30.2 °F 70% 29.93 in 10.0 mi NW 9.2 mph 16.1 mph N/A   Overcast
4:13 AM 39.2 °F 31.6 °F 30.2 °F 70% 29.93 in 10.0 mi NNW 12.7 mph 18.4 mph N/A   Overcast
4:32 AM 39.2 °F 33.0 °F 30.2 °F 70% 29.94 in 10.0 mi NNW 9.2 mph 16.1 mph N/A   Overcast
4:53 AM 39.2 °F 34.2 °F 30.2 °F 70% 29.94 in 10.0 mi NW 6.9 mph - N/A   Overcast
5:13 AM 39.2 °F 33.0 °F 30.2 °F 70% 29.95 in 10.0 mi NW 9.2 mph - N/A   Overcast
5:32 AM 37.4 °F 31.4 °F 30.2 °F 75% 29.95 in 10.0 mi NNW 8.1 mph - N/A   Overcast
5:53 AM 37.4 °F 31.4 °F 30.2 °F 75% 29.95 in 10.0 mi NNW 8.1 mph - N/A   Overcast
6:13 AM 37.4 °F 32.8 °F 30.2 °F 75% 29.95 in 10.0 mi NW 5.8 mph - N/A   Overcast
6:32 AM 35.6 °F 28.6 °F 28.4 °F 75% 29.96 in 10.0 mi NW 9.2 mph - N/A   Mostly Cloudy
6:53 AM 35.6 °F 30.7 °F 28.4 °F 75% 29.96 in 10.0 mi NW 5.8 mph - N/A   Mostly Cloudy
7:13 AM 35.6 °F 29.2 °F 28.4 °F 75% 29.97 in 10.0 mi NW 8.1 mph - N/A   Mostly Cloudy
7:32 AM 35.6 °F 28.6 °F 28.4 °F 75% 29.97 in 10.0 mi NW 9.2 mph - N/A   Mostly Cloudy
7:53 AM 35.6 °F 29.9 °F 28.4 °F 75% 29.97 in 10.0 mi NW 6.9 mph - N/A   Overcast
8:12 AM 35.6 °F 28.6 °F 28.4 °F 75% 29.98 in 10.0 mi NW 9.2 mph - N/A   Overcast
8:32 AM 35.6 °F 29.2 °F 26.6 °F 70% 29.99 in 10.0 mi NNW 8.1 mph - N/A   Overcast
8:53 AM 35.6 °F 29.9 °F 28.4 °F 75% 29.99 in 10.0 mi NNW 6.9 mph - N/A   Overcast
9:12 AM 35.6 °F 28.6 °F 26.6 °F 70% 30.00 in 10.0 mi NW 9.2 mph - N/A   Overcast
9:32 AM 35.6 °F 28.0 °F 26.6 °F 70% 30.00 in 10.0 mi NNW 10.4 mph 16.1 mph N/A   Overcast
9:53 AM 35.6 °F 31.7 °F 26.6 °F 70% 30.00 in 10.0 mi NNW 4.6 mph 16.1 mph N/A   Overcast
10:12 AM 35.6 °F 28.0 °F 26.6 °F 70% 30.00 in 10.0 mi NNW 10.4 mph 16.1 mph N/A   Overcast
10:32 AM 37.4 °F 28.9 °F 24.8 °F 60% 30.00 in 10.0 mi NW 13.8 mph 18.4 mph N/A   Scattered Clouds
10:53 AM 37.4 °F 30.8 °F 24.8 °F 60% 30.00 in 10.0 mi NNW 9.2 mph 17.3 mph N/A   Mostly Cloudy
11:12 AM 37.4 °F 30.3 °F 24.8 °F 60% 30.00 in 10.0 mi NW 10.4 mph 19.6 mph N/A   Overcast
11:32 AM 35.6 °F 28.0 °F 23.0 °F 60% 30.00 in 10.0 mi NW 10.4 mph 19.6 mph N/A   Overcast
11:53 AM 35.6 °F 28.6 °F 23.0 °F 60% 30.01 in 10.0 mi NNW 9.2 mph 17.3 mph N/A   Overcast
12:12 PM 35.6 °F 28.6 °F 21.2 °F 56% 30.01 in 10.0 mi NNW 9.2 mph - N/A   Overcast
12:32 PM 37.4 °F 31.4 °F 21.2 °F 52% 30.01 in 10.0 mi NW 8.1 mph - N/A   Overcast
12:53 PM 37.4 °F 32.1 °F 21.2 °F 52% 30.00 in 10.0 mi NW 6.9 mph 18.4 mph N/A   Overcast
1:12 PM 37.4 °F 29.8 °F 21.2 °F 52% 30.01 in 10.0 mi NW 11.5 mph - N/A   Overcast
1:32 PM 37.4 °F 30.3 °F 19.4 °F 48% 30.00 in 10.0 mi WNW 10.4 mph 16.1 mph N/A   Overcast
1:53 PM 37.4 °F 30.8 °F 19.4 °F 48% 30.00 in 10.0 mi NW 9.2 mph - N/A   Overcast
2:12 PM 37.4 °F 30.8 °F 19.4 °F 48% 30.00 in 10.0 mi NW 9.2 mph 16.1 mph N/A   Overcast
2:33 PM 37.4 °F 29.8 °F 19.4 °F 48% 29.99 in 10.0 mi NNW 11.5 mph - N/A   Overcast
2:52 PM 37.4 °F 31.4 °F 19.4 °F 48% 29.99 in 10.0 mi NNW 8.1 mph - N/A   Overcast
3:12 PM 37.4 °F 30.8 °F 19.4 °F 48% 29.99 in 10.0 mi NNW 9.2 mph - N/A   Overcast
3:33 PM 37.4 °F 30.8 °F 19.4 °F 48% 29.99 in 10.0 mi NW 9.2 mph - N/A   Overcast
3:52 PM 37.4 °F 31.4 °F 19.4 °F 48% 30.00 in 10.0 mi NNW 8.1 mph - N/A   Overcast
4:13 PM 37.4 °F 30.8 °F 19.4 °F 48% 30.00 in 10.0 mi NNW 9.2 mph - N/A   Overcast
4:32 PM 37.4 °F 31.4 °F 19.4 °F 48% 30.00 in 10.0 mi NNW 8.1 mph - N/A   Overcast
4:52 PM 37.4 °F 32.1 °F 19.4 °F 48% 30.01 in 10.0 mi NNW 6.9 mph - N/A   Overcast
5:12 PM 37.4 °F 32.8 °F 19.4 °F 48% 30.02 in 10.0 mi NW 5.8 mph - N/A   Overcast
5:32 PM 35.6 °F 29.9 °F 19.4 °F 52% 30.01 in 10.0 mi NW 6.9 mph - N/A   Overcast
5:53 PM 33.8 °F 28.6 °F 19.4 °F 56% 30.01 in 10.0 mi NNW 5.8 mph - N/A   Scattered Clouds
6:12 PM 33.8 °F 28.6 °F 19.4 °F 56% 30.02 in 10.0 mi NNW 5.8 mph - N/A   Scattered Clouds
6:33 PM 33.8 °F 27.0 °F 21.2 °F 60% 30.02 in 10.0 mi North 8.1 mph - N/A   Unknown
6:52 PM 30.2 °F 23.4 °F 19.4 °F 64% 30.02 in 10.0 mi North 6.9 mph - N/A   Scattered Clouds
7:12 PM 30.2 °F 22.6 °F 19.4 °F 64% 30.03 in 10.0 mi North 8.1 mph - N/A   Clear
7:33 PM 30.2 °F 22.6 °F 19.4 °F 64% 30.04 in 10.0 mi North 8.1 mph - N/A   Scattered Clouds
7:52 PM 32.0 °F 25.6 °F 21.2 °F 64% 30.05 in 10.0 mi North 6.9 mph - N/A   Mostly Cloudy
8:12 PM 32.0 °F 26.4 °F 21.2 °F 64% 30.05 in 10.0 mi NNW 5.8 mph - N/A   Overcast
8:33 PM 32.0 °F 24.8 °F 21.2 °F 64% 30.05 in 10.0 mi NNW 8.1 mph - N/A   Overcast
8:52 PM 30.2 °F 23.4 °F 21.2 °F 69% 30.05 in 10.0 mi NNW 6.9 mph - N/A   Overcast
9:12 PM 30.2 °F 25.4 °F 21.2 °F 69% 30.05 in 10.0 mi North 4.6 mph - N/A   Overcast
9:33 PM 30.2 °F 24.3 °F 21.2 °F 69% 30.06 in 10.0 mi North 5.8 mph - N/A   Overcast
9:52 PM 30.2 °F 21.3 °F 21.2 °F 69% 30.05 in 10.0 mi NNE 10.4 mph - N/A   Overcast
10:12 PM 30.2 °F 23.4 °F 21.2 °F 69% 30.06 in 10.0 mi North 6.9 mph - N/A   Overcast
10:32 PM 30.2 °F 23.4 °F 21.2 °F 69% 30.06 in 10.0 mi North 6.9 mph - N/A   Overcast
10:52 PM 30.2 °F 21.9 °F 21.2 °F 69% 30.07 in 10.0 mi North 9.2 mph - N/A   Overcast
11:13 PM 30.2 °F 20.2 °F 21.2 °F 69% 30.06 in 10.0 mi North 12.7 mph - N/A   Overcast
11:32 PM 30.2 °F 23.4 °F 21.2 °F 69% 30.06 in 10.0 mi North 6.9 mph - N/A   Overcast
11:52 PM 30.2 °F 24.3 °F 21.2 °F 69% 30.06 in 10.0 mi North 5.8 mph - N/A   Overcast